This is the latest recevied weather packets stored in our database for station/object KD4WXI. If no packets are shown the sender has not sent any weather packets the latest 10 day(s).
| Time | Temp. | Humidity | Pressure | Rain* | Wind** | Luminosity | Snow |
|---|---|---|---|---|---|---|---|
| 1778159471 | 17.22° C | 99% | 1009.4 hPa | 0 mm | - | 51 W/m² | - |
| 1778159167 | 17.22° C | 99% | 1009.7 hPa | 0 mm | - | 48 W/m² | - |
| 1778158865 | 17.22° C | 99% | 1009.7 hPa | 0 mm | - | 45 W/m² | - |
| 1778158564 | 17.22° C | 99% | 1010.1 hPa | 1.27 mm | - | 47 W/m² | - |
| 1778158261 | 17.22° C | 99% | 1010.4 hPa | 1.27 mm | - | 33 W/m² | - |
| 1778157957 | 17.22° C | 99% | 1010.7 hPa | 1.78 mm | - | 30 W/m² | - |
| 1778157655 | 17.22° C | 99% | 1010.8 hPa | 1.78 mm | - | 20 W/m² | - |
| 1778157353 | 17.22° C | 99% | 1011.1 hPa | 1.27 mm | - | 15 W/m² | - |
| 1778157050 | 17.22° C | 99% | 1011.5 hPa | 3.05 mm | - | 19 W/m² | - |
| 1778156745 | 17.22° C | 99% | 1011.5 hPa | 3.56 mm | - | 29 W/m² | - |
| 1778156441 | 17.22° C | 99% | 1012 hPa | 3.05 mm | - | 22 W/m² | - |
| 1778156137 | 17.22° C | 99% | 1011.9 hPa | 3.05 mm | - | 17 W/m² | - |
| 1778155833 | 17.22° C | 99% | 1011.9 hPa | 3.05 mm | - | 15 W/m² | - |
| 1778155529 | 17.22° C | 99% | 1012.3 hPa | 1.27 mm | - | 16 W/m² | - |
| 1778155226 | 17.22° C | 99% | 1011.7 hPa | 0 mm | - | 18 W/m² | - |
| 1778154922 | 17.22° C | 99% | 1011.4 hPa | 0 mm | - | 14 W/m² | - |
| 1778154618 | 17.22° C | 99% | 1011 hPa | 0 mm | - | 14 W/m² | - |
| 1778154314 | 17.22° C | 99% | 1010.9 hPa | 1.78 mm | - | 13 W/m² | - |
| 1778154012 | 17.22° C | 99% | 1010.7 hPa | 1.78 mm | - | 21 W/m² | - |
| 1778153709 | 17.22° C | 99% | 1010.8 hPa | 0 mm | - | 18 W/m² | - |
| 1778153406 | 17.22° C | 99% | 1011.2 hPa | 0 mm | - | 12 W/m² | - |
| 1778153104 | 17.22° C | 99% | 1011.2 hPa | 0 mm | - | 8 W/m² | - |
| 1778152800 | 17.22° C | 99% | 1011.1 hPa | 0 mm | - | 4 W/m² | - |
| 1778152497 | 17.22° C | 99% | 1010.7 hPa | 0 mm | - | 6 W/m² | - |
| 1778152193 | 17.22° C | 99% | 1010.8 hPa | 0 mm | - | 10 W/m² | - |
* Rain latest hour (hover to see other rain measurements)
** Current wind speed in m/s (hover to see current wind gust speed)